This is the latest recevied weather packets stored in our database for station/object WA7CUG. If no packets are shown the sender has not sent any weather packets the latest 1 day(s).
| Time | Temp. | Humidity | Pressure | Rain* | Wind** | Luminosity | Snow |
|---|---|---|---|---|---|---|---|
| 1778034916 | 25° C | 40% | 1009.1 hPa | 0 mm | 0.45 m/s, 186° | 37 W/m² | - |
| 1778034615 | 24.44° C | 47% | 1009.1 hPa | 0 mm | 0.45 m/s, 181° | 45 W/m² | - |
| 1778034312 | 26.11° C | 49% | 1008.9 hPa | 0 mm | 0 m/s | 52 W/m² | - |
| 1778034009 | 26.11° C | 50% | 1009.1 hPa | 0 mm | 0 m/s | 60 W/m² | - |
| 1778033706 | 27.22° C | 47% | 1008.9 hPa | 0 mm | 0.45 m/s, 183° | 69 W/m² | - |
| 1778033404 | 26.67° C | 46% | 1008.9 hPa | 0 mm | 0 m/s | 78 W/m² | - |
| 1778033101 | 27.78° C | 45% | 1008.8 hPa | 0 mm | 0.45 m/s, 211° | 87 W/m² | - |
| 1778032797 | 27.78° C | 36% | 1008.8 hPa | 0 mm | 0 m/s | 97 W/m² | - |
| 1778032495 | 27.78° C | 38% | 1009 hPa | 0 mm | 0.45 m/s, 172° | 108 W/m² | - |
| 1778032192 | 28.89° C | 39% | 1008.9 hPa | 0 mm | 0 m/s | 119 W/m² | - |
| 1778031889 | 28.89° C | 40% | 1008.9 hPa | 0 mm | 0 m/s | 131 W/m² | - |
| 1778031585 | 30.56° C | 42% | 1008.8 hPa | 0 mm | 0.45 m/s, 190° | 143 W/m² | - |
| 1778031284 | 30.56° C | 37% | 1008.8 hPa | 0 mm | 0 m/s | 156 W/m² | - |
| 1778030979 | 29.44° C | 28% | 1009 hPa | 0 mm | 0 m/s | 167 W/m² | - |
| 1778030676 | 28.89° C | 30% | 1008.7 hPa | 0 mm | 0 m/s | 180 W/m² | - |
| 1778030373 | 29.44° C | 30% | 1008.9 hPa | 0 mm | 0 m/s | 194 W/m² | - |
| 1778030071 | 28.89° C | 29% | 1008.8 hPa | 0 mm | 0 m/s | 205 W/m² | - |
| 1778029767 | 28.89° C | 31% | 1009 hPa | 0 mm | 0 m/s | 218 W/m² | - |
| 1778029466 | 28.89° C | 28% | 1009.2 hPa | 0 mm | 0.45 m/s, 141° | 232 W/m² | - |
| 1778029162 | 29.44° C | 27% | 1009.1 hPa | 0 mm | 0.89 m/s, 183° | 246 W/m² | - |
| 1778028860 | 28.89° C | 29% | 1009.2 hPa | 0 mm | 0.45 m/s, 175° | 258 W/m² | - |
| 1778028555 | 28.89° C | 27% | 1009.1 hPa | 0 mm | 0.45 m/s, 126° | 272 W/m² | - |
| 1778028253 | 28.89° C | 29% | 1009.2 hPa | 0 mm | 0 m/s | 286 W/m² | - |
| 1778027949 | 29.44° C | 29% | 1009.3 hPa | 0 mm | 0 m/s | 299 W/m² | - |
| 1778027645 | 28.89° C | 28% | 1009.1 hPa | 0 mm | 0.45 m/s, 157° | 313 W/m² | - |
* Rain latest hour (hover to see other rain measurements)
** Current wind speed in m/s (hover to see current wind gust speed)